Regional Weather Roundup
Issued by NWS

Home | Current Version | Previous Version | Graphics & Text | Print | Product List | Glossary On
Versions: 1 2 3 4 5 6 7 8 9 10 11 12 13 14 15 16 17 18 19 20 21 22 23 24 25 26 27 28 29 30 31 32 33 34 35 36 37 38 39 40 41 42 43 44 45 46 47 48 49 50
105
ASUS43 KLMK 231802
RWRKY
KENTUCKY REGIONAL WEATHER ROUNDUP
NATIONAL WEATHER SERVICE LOUISVILLE KY
200 PM EDT WED AUG 23 2017

NOTE "FAIR" INDICATES FEW OR NO CLOUDS BELOW 12,000 FEET
WITH NO SIGNIFICANT WEATHER AND/OR OBSTRUCTIONS TO VISIBILITY.

KYZ001>023-026-027-061>063-070>075-231900-
WESTERN AND SOUTH CENTRAL KENTUCKY

CITY           SKY/WX    TMP DP  RH WIND       PRES   REMARKS
PADUCAH        MOSUNNY   79  55  43 CALM      30.05F
HENDERSON      NOT AVBL
OWENSBORO      MOSUNNY   79  60  52 N7        30.05F
HOPKINSVILLE   MOSUNNY   78  57  48 W8        30.04F
BOWLING GREEN  MOSUNNY   79  57  46 VRB6      30.04F
GLASGOW        MOSUNNY   79  58  47 NW6       30.03F
$$

KYZ024-025-028>034-038-045-046-053-231900-
NORTH CENTRAL KENTUCKY

CITY           SKY/WX    TMP DP  RH WIND       PRES   REMARKS
LOUISVILLE/SDF PTSUNNY   80  56  43 N9        30.03F
LOUISVILLE/LOU MOSUNNY   78  57  48 NW7       30.04S
FORT KNOX      MOSUNNY   77  57  49 N6        30.03S
$$

KYZ035>037-039>044-047>052-055>060-089>105-231900-
NORTHEAST KENTUCKY

CITY           SKY/WX    TMP DP  RH WIND       PRES   REMARKS
LEXINGTON      MOSUNNY   78  55  44 NW7       30.04S
COVINGTON      PTSUNNY   75  55  49 NW8G17    30.04S
FRANKFORT      MOSUNNY   79  53  40 NW8       30.03F
$$

KYZ054-064>069-076>088-106>120-231900-
SOUTHEAST KENTUCKY

CITY           SKY/WX    TMP DP  RH WIND       PRES   REMARKS
JACKSON        SUNNY     77  60  55 VRB7      30.02S
LONDON         PTSUNNY   79  64  60 W14       30.01F
SOMERSET       MOSUNNY   77  59  53 N5        30.03F
MIDDLESBORO    SUNNY     82  62  50 W6        30.00F
MONTICELLO     PTCLDY    78  65  63 W8        30.04F
$$





USA.gov is the U.S. government's official web portal to all federal, state and local government web resources and services.